This demonstration page uses our WeatherBlox Daily Observations layout. Learn more.

Left ArrowRight Arrow

38.80484, -77.04692

Hourly Observations for October 16, 2019

Temp ( °F °C ) Dew Point ( °F °C ) Humidity (%) Winds ( mph kmh ) Pressure ( in mb ) Visibility ( mi km ) Precip ( " mm )
12:52 am 00:52 Mostly Clear 59 15 53 11.7 81 81 SSW 3 6 30.01 1016 10 16 0.00 0.00
1:50 am 01:50 Mostly Cloudy 59 15 55 13 88 88 SE 5 7 29.99 1016 10 16 0.00 0.00
1:52 am 01:52 Mostly Cloudy 59 15 55 12.8 87 87 SE 5 7 29.99 1016 10 16 0.00 0.00
2:49 am 02:49 Cloudy 61 16 57 14 88 88 S 7 11 29.97 1015 10 16 0.00 0.00
2:52 am 02:52 Cloudy 60 15.6 57 13.9 90 90 S 6 9 29.96 1015 10 16 0.00 0.00
3:20 am 03:20 Cloudy 60 15.6 56 13.3 86 86 ENE 5 7 29.95 1014 10 16 0.00 0.00
3:38 am 03:38 Cloudy 59 15 56 13.3 90 90 E 5 7 29.94 1014 10 16 0.00 0.00
3:52 am 03:52 Cloudy 60 15.6 57 13.9 90 90 ENE 3 6 29.93 1014 10 16 0.00 0.00
4:52 am 04:52 Cloudy 60 15.6 58 14.4 93 93 SE 5 7 29.91 1013 10 16 0.00 0.00
5:52 am 05:52 Cloudy 61 16.1 59 15 93 93 S 5 7 29.89 1012 10 16 0.00 0.00
6:52 am 06:52 Cloudy 62 16.7 59 15 90 90 S 6 9 29.88 1012 10 16 0.00 0.00
7:52 am 07:52 Cloudy 62 16.7 60 15.6 93 93 S 9 15 29.87 1012 7 11 0.00 0.00
8:52 am 08:52 Cloudy 63 17.2 61 16.1 93 93 SSE 10 17 29.84 1010 7 11 0.00 0.00
9:27 am 09:27 Cloudy 64 17.8 61 16.1 90 90 S 10 17 29.81 1009 10 16 0.00 0.00
9:52 am 09:52 Cloudy with Light Rain 64 17.8 62 16.7 93 93 S 10 17 29.78 1009 7 11 0.00 0.00
10:52 am 10:52 Cloudy with Light Rain 65 18.3 62 16.7 90 90 SSE 10 17 29.74 1007 9 14 0.02 0.51
11:02 am 11:02 Cloudy with Rain 64 17.8 62 16.7 93 93 S 9 15 29.74 1007 3 4 0.02 0.51
11:19 am 11:19 Cloudy with Heavy Rain 64 17.8 62 16.7 93 93 S 5 7 29.71 1006 3 5 0.08 2.03
11:28 am 11:28 Cloudy with Rain 64 17.8 62 16.7 93 93 SSW 6 9 29.71 1006 3 5 0.11 2.79
11:42 am 11:42 Cloudy with Heavy Rain 63 17.2 60 15.6 90 90 SSW 6 9 29.69 1005 3 4 0.16 4.06
11:52 am 11:52 Cloudy with Heavy Rain 63 17.2 60 15.6 90 90 SSW 5 7 29.69 1005 2 3 0.22 5.59
11:55 am 11:55 Cloudy with Heavy Rain 63 17.2 60 15.6 90 90 VRB 6 9 29.68 1005 2 3 0.03 0.76
12:03 pm 12:03 Cloudy with Heavy Rain 62 16.7 60 15.6 93 93 W 8 13 29.67 1005 1 2 0.10 2.54
12:16 pm 12:16 Cloudy with Heavy Rain 61 16.1 59 15 93 93 W 10 17 29.66 1004 1 2 0.24 6.10
12:36 pm 12:36 Cloudy with Heavy Rain 61 16.1 59 15 93 93 W 7 11 29.67 1005 1 2 0.37 9.40
12:52 pm 12:52 Cloudy with Heavy Rain 60 15.6 58 14.4 93 93 SW 7 11 29.67 1005 2 2 0.52 13.21
1:39 pm 13:39 Cloudy with Heavy Rain 59 15 57 13.9 93 93 NW 10 17 29.62 1003 2 3 0.33 8.38
1:47 pm 13:47 Cloudy with Heavy Rain 59 15 57 14 94 94 NW 6 9 29.62 1003 2 2 0.38 9.65
1:52 pm 13:52 Cloudy with Rain 59 15 58 14.4 96 96 WNW 7 11 29.61 1003 2 3 0.41 10.41
2:16 pm 14:16 Cloudy with Rain 59 15 58 14.4 96 96 W 8 13 29.59 1002 3 5 0.08 2.03
2:24 pm 14:24 Cloudy with Rain 59 15 58 14.4 96 96 NW 7 11 29.57 1001 3 5 0.10 2.54
2:33 pm 14:33 Cloudy with Rain 59 15 58 14.4 96 96 NW 10 17 29.57 1001 3 5 0.13 3.30
2:52 pm 14:52 Cloudy with Light Rain 59 15 57 13.9 93 93 NW 12 19 29.54 1001 8 13 0.16 4.06
3:52 pm 15:52 Cloudy with Light Rain 60 15.6 58 14.4 93 93 NW 9 15 29.52 1000 10 16 0.02 0.51
4:10 pm 16:10 Cloudy with Light Rain 61 16.1 58 14.4 90 90 WNW 10 17 29.53 1000 3 5 0.00 0.00
4:14 pm 16:14 Cloudy with Light Rain 60 15.6 58 14.4 93 93 NW 15 24 29.53 1000 4 6 0.00 0.00
4:23 pm 16:23 Cloudy with Light Rain 60 15.6 57 13.9 90 90 NW 14 22 29.52 1000 9 14 0.00 0.00
4:33 pm 16:33 Cloudy 60 15.6 56 13.3 86 86 NW 13 20 29.52 1000 10 16 0.00 0.00
4:52 pm 16:52 Mostly Cloudy 60 15.6 56 13.3 86 86 NNW 8 13 29.51 999 10 16 0.00 0.00
5:52 pm 17:52 Mostly Cloudy 59 15 53 11.7 81 81 NW 20 31 29.52 1000 10 16 0.00 0.00
6:52 pm 18:52 Partly Cloudy 57 13.9 44 6.7 62 62 WNW 20 31 29.53 1000 10 16 0.00 0.00
7:52 pm 19:52 Mostly Clear 56 13.3 43 6.1 62 62 W 17 28 29.54 1000 10 16 0.00 0.00
8:52 pm 20:52 Mostly Clear 56 13.3 42 5.6 60 60 WNW 23 37 29.56 1001 10 16 0.00 0.00
9:52 pm 21:52 Mostly Clear 55 12.8 39 3.9 55 55 NW 18 30 29.58 1002 10 16 0.00 0.00
10:52 pm 22:52 Mostly Clear 54 12.2 38 3.3 55 55 W 14 22 29.58 1002 10 16 0.00 0.00
11:52 pm 23:52 Clear 52 11.1 38 3.3 59 59 WSW 7 11 29.59 1002 10 16 0.00 0.00

Powered by AerisWeather